カタリナ彗星

C/2006 A2 ( Catalina )

English version
Home page
Updated on February 12, 2007

---------------------------------------------------------------------

・ プロフィール

発見日 2006年1月21日
発見光度 20.3等
発見者 Catalina Sky Survey

・ 軌道要素

Epoch 2005 May 30.0 TT = JDT 2453520.5
T 2005 May 20.13331 TT                                  MPC
q   5.3161703            (2000.0)            P               Q
z  +0.0003617      Peri.  141.02484     +0.03665559     +0.90647675
 +/-0.0000145      Node   233.22633     +0.73393520     +0.26126951
e   0.9980772      Incl.  148.32056     +0.67822967     -0.33171998

・ 光度変化

        m1 = 12.0 + 5 logΔ + 5.0 log r

---------------------------------------------------------------------

軌道要素はM.P.E.C. 2006-U81に掲載されたものです。
光度グラフはComet for Windowsで作成したものです。

---------------------------------------------------------------------

Copyright(C) Seiichi Yoshida (comet@aerith.net). All rights reserved.